Weather History for Lakeville, MN

Change the Weather History Date:

Friday, February 7, 2014

  Actual Average Record
Temperature  
Mean Temperature 2 °F -  
Max Temperature 10 °F 23 °F 52 °F (1987)
Min Temperature -5 °F 3 °F -26 °F (1972)
Degree Days  
Heating Degree Days 62    
Moisture  
Dew Point -8 °F    
Average Humidity 68    
Maximum Humidity 85    
Minimum Humidity 48    
Precipitation  
Precipitation 0.00 in - - ()
Sea Level Pressure  
Sea Level Pressure 30.17 in    
Wind  
Wind Speed 7 mph (WSW)    
Max Wind Speed 15 mph    
Max Gust Speed 20 mph    
Visibility 10 miles    
Events      
Averages and records for this station are not official NWS values.
T = Trace of Precipitation, MM = Missing Value Source: NWS Daily Summary

Daily Weather History Graph

Daily Weather History Graph

Search for Another Location

Airport:

Trip Planner

Search our weather history database for the weather conditions in past years. The results will help you decide how hot, cold, wet, or windy it might be!

Date:

Astronomy

Feb. 07, 2014 Rise Set
Actual Time 7:24 AM CST 5:30 PM CST
Civil Twilight 6:53 AM CST 6:00 PM CST
Nautical Twilight 6:19 AM CST 6:35 PM CST
Astronomical Twilight 5:45 AM CST 7:09 PM CST
Moon 11:39 AM CST (2/7) 1:42 AM CST (2/7)
Length of Visible Light 11h 07m
Length of Day
10h 06m
First Quarter, 59% of the Moon is Illuminated
Feb 7
First Quarter
Feb 14
Full
Feb 22
Last Quarter
Mar 1
New
Mar 8
First Quarter

Hourly Weather History & Observations

Time (CST) Temp. Windchill Dew Point Humidity Pressure Visibility Wind Dir Wind Speed Gust Speed Precip Events Conditions
12:01 AM -2.2 °F -15.6 °F -9.4 °F 71% 30.21 in 10.0 mi WSW 6.9 mph - N/A   Clear
12:22 AM -4.0 °F -16.3 °F -9.4 °F 78% 30.21 in 10.0 mi WSW 5.8 mph - N/A   Clear
12:41 AM -4.0 °F -16.3 °F -9.4 °F 78% 30.21 in 10.0 mi WSW 5.8 mph - N/A   Clear
1:02 AM -5.8 °F -19.9 °F -9.4 °F 84% 30.20 in 10.0 mi SW 6.9 mph - N/A   Clear
1:22 AM -4.0 °F -17.8 °F -9.4 °F 78% 30.20 in 10.0 mi WSW 6.9 mph - N/A   Clear
1:41 AM -5.8 °F -22.4 °F -9.4 °F 84% 30.20 in 10.0 mi WSW 9.2 mph - N/A   Clear
2:02 AM -5.8 °F -19.9 °F -9.4 °F 84% 30.20 in 10.0 mi WSW 6.9 mph - N/A   Clear
2:22 AM -5.8 °F -21.2 °F -11.2 °F 77% 30.20 in 10.0 mi WSW 8.1 mph - N/A   Clear
2:41 AM -5.8 °F -19.9 °F -11.2 °F 77% 30.19 in 10.0 mi WSW 6.9 mph - N/A   Clear
3:02 AM -5.8 °F -18.4 °F -11.2 °F 77% 30.19 in 10.0 mi WSW 5.8 mph - N/A   Clear
3:22 AM -5.8 °F -18.4 °F -11.2 °F 77% 30.19 in 10.0 mi WSW 5.8 mph - N/A   Clear
3:41 AM -5.8 °F -19.9 °F -11.2 °F 77% 30.18 in 10.0 mi WSW 6.9 mph - N/A   Clear
4:02 AM -5.8 °F -18.4 °F -11.2 °F 77% 30.18 in 10.0 mi WSW 5.8 mph - N/A   Clear
4:21 AM -5.8 °F -21.2 °F -11.2 °F 77% 30.18 in 10.0 mi WSW 8.1 mph - N/A   Clear
4:41 AM -5.8 °F -19.9 °F -11.2 °F 77% 30.18 in 10.0 mi WSW 6.9 mph - N/A   Clear
5:02 AM -5.8 °F -22.4 °F -11.2 °F 77% 30.17 in 10.0 mi WSW 9.2 mph - N/A   Clear
5:21 AM -5.8 °F -21.2 °F -11.2 °F 77% 30.17 in 10.0 mi WSW 8.1 mph - N/A   Clear
5:42 AM -5.8 °F -22.4 °F -13.0 °F 71% 30.17 in 10.0 mi WSW 9.2 mph - N/A   Clear
6:02 AM -5.8 °F -22.4 °F -13.0 °F 71% 30.17 in 10.0 mi WSW 9.2 mph - N/A   Clear
6:21 AM -5.8 °F -21.2 °F -13.0 °F 71% 30.17 in 10.0 mi WSW 8.1 mph - N/A   Clear
6:42 AM -5.8 °F -21.2 °F -13.0 °F 71% 30.16 in 10.0 mi WSW 8.1 mph - N/A   Clear
7:02 AM -5.8 °F -21.2 °F -13.0 °F 71% 30.16 in 10.0 mi WSW 8.1 mph - N/A   Clear
7:21 AM -5.8 °F -21.2 °F -13.0 °F 71% 30.17 in 10.0 mi WSW 8.1 mph - N/A   Clear
7:42 AM -5.8 °F -22.4 °F -13.0 °F 71% 30.17 in 10.0 mi WSW 9.2 mph - N/A   Clear
8:01 AM -5.8 °F -19.9 °F -13.0 °F 71% 30.17 in 10.0 mi WSW 6.9 mph - N/A   Clear
8:21 AM -5.8 °F -22.4 °F -13.0 °F 71% 30.17 in 10.0 mi WSW 9.2 mph - N/A   Clear
8:42 AM -4.0 °F -19.0 °F -11.2 °F 71% 30.18 in 10.0 mi WSW 8.1 mph - N/A   Clear
9:01 AM -2.2 °F -18.9 °F -11.2 °F 66% 30.18 in 10.0 mi WSW 10.4 mph - N/A   Clear
9:21 AM -0.4 °F -16.7 °F -11.2 °F 60% 30.17 in 10.0 mi WSW 10.4 mph 17.3 mph N/A   Clear
9:42 AM -0.4 °F -18.4 °F -11.2 °F 60% 30.18 in 10.0 mi WSW 12.7 mph 19.6 mph N/A   Clear
10:01 AM 1.4 °F -14.5 °F -11.2 °F 56% 30.18 in 10.0 mi WSW 10.4 mph 18.4 mph N/A   Clear
10:21 AM 1.4 °F -16.9 °F -11.2 °F 56% 30.18 in 10.0 mi WSW 13.8 mph 19.6 mph N/A   Clear
10:42 AM 1.4 °F -14.5 °F -9.4 °F 61% 30.19 in 10.0 mi WSW 10.4 mph - N/A   Clear
11:01 AM 1.4 °F -15.3 °F -9.4 °F 61% 30.19 in 10.0 mi WSW 11.5 mph 18.4 mph N/A   Clear
11:22 AM 3.2 °F -13.1 °F -9.4 °F 56% 30.19 in 10.0 mi WSW 11.5 mph 19.6 mph N/A   Clear
11:42 AM 5.0 °F -11.6 °F -9.4 °F 52% 30.18 in 10.0 mi WSW 12.7 mph 17.3 mph N/A   Clear
12:01 PM 5.0 °F -11.6 °F -9.4 °F 52% 30.18 in 10.0 mi WSW 12.7 mph 18.4 mph N/A   Clear
12:22 PM 6.8 °F -9.3 °F -9.4 °F 48% 30.17 in 10.0 mi WSW 12.7 mph 16.1 mph N/A   Clear
12:42 PM 6.8 °F -9.3 °F -7.6 °F 52% 30.17 in 10.0 mi WSW 12.7 mph 16.1 mph N/A   Clear
1:01 PM 6.8 °F -7.8 °F -7.6 °F 52% 30.16 in 10.0 mi WSW 10.4 mph 18.4 mph N/A   Clear
1:22 PM 8.6 °F -8.3 °F -7.6 °F 48% 30.16 in 10.0 mi WSW 15.0 mph - N/A   Clear
1:42 PM 8.6 °F -3.7 °F -5.8 °F 52% 30.16 in 10.0 mi WSW 8.1 mph - N/A   Clear
2:01 PM 8.6 °F -7.7 °F -5.8 °F 52% 30.16 in 10.0 mi WSW 13.8 mph - N/A   Clear
2:22 PM 10.4 °F -3.3 °F -5.8 °F 48% 30.15 in 10.0 mi WSW 10.4 mph 17.3 mph N/A   Clear
2:42 PM 10.4 °F -2.4 °F -5.8 °F 48% 30.15 in 10.0 mi WSW 9.2 mph 17.3 mph N/A   Clear
3:01 PM 10.4 °F -2.4 °F -5.8 °F 48% 30.15 in 10.0 mi WSW 9.2 mph - N/A   Clear
3:21 PM 10.4 °F -1.5 °F -5.8 °F 48% 30.15 in 10.0 mi WSW 8.1 mph - N/A   Clear
3:42 PM 10.4 °F -0.4 °F -5.8 °F 48% 30.15 in 10.0 mi WSW 6.9 mph - N/A   Clear
4:02 PM 10.4 °F -0.4 °F -5.8 °F 48% 30.15 in 10.0 mi WSW 6.9 mph 16.1 mph N/A   Clear
4:21 PM 10.4 °F 0.8 °F -4.0 °F 52% 30.15 in 10.0 mi WSW 5.8 mph - N/A   Clear
4:42 PM 8.6 °F 0.1 °F -4.0 °F 57% 30.15 in 10.0 mi WSW 4.6 mph - N/A   Clear
5:01 PM 8.6 °F - -4.0 °F 57% 30.15 in 10.0 mi Calm Calm - N/A   Clear
5:22 PM 6.8 °F - -4.0 °F 61% 30.15 in 10.0 mi Calm Calm - N/A   Clear
5:41 PM 3.2 °F - -5.8 °F 66% 30.15 in 10.0 mi Calm Calm - N/A   Clear
6:02 PM 6.8 °F - -4.0 °F 61% 30.15 in 10.0 mi Calm Calm - N/A   Clear
6:22 PM 3.2 °F - -4.0 °F 72% 30.15 in 10.0 mi Calm Calm - N/A   Clear
6:41 PM 3.2 °F - -5.8 °F 66% 30.16 in 10.0 mi Calm Calm - N/A   Clear
7:02 PM 1.4 °F - -4.0 °F 78% 30.15 in 10.0 mi Calm Calm - N/A   Clear
7:21 PM 1.4 °F - -5.8 °F 72% 30.15 in 10.0 mi Calm Calm - N/A   Clear
7:41 PM -0.4 °F - -5.8 °F 78% 30.15 in 10.0 mi Calm Calm - N/A   Clear
8:02 PM -0.4 °F - -5.8 °F 78% 30.15 in 10.0 mi Calm Calm - N/A   Clear
8:21 PM -0.4 °F - -5.8 °F 78% 30.15 in 10.0 mi Calm Calm - N/A   Clear
8:41 PM -0.4 °F - -5.8 °F 78% 30.15 in 10.0 mi Calm Calm - N/A   Clear
9:02 PM 1.4 °F - -2.2 °F 85% 30.15 in 10.0 mi Calm Calm - N/A   Clear
9:21 PM 1.4 °F - -2.2 °F 85% 30.15 in 10.0 mi Calm Calm - N/A   Clear
9:42 PM 1.4 °F - -2.2 °F 85% 30.15 in 10.0 mi Calm Calm - N/A   Clear
10:02 PM 1.4 °F - -2.2 °F 85% 30.15 in 10.0 mi Calm Calm - N/A   Clear
10:21 PM 1.4 °F - -2.2 °F 85% 30.15 in 10.0 mi Calm Calm - N/A   Clear
10:42 PM 1.4 °F - -2.2 °F 85% 30.14 in 10.0 mi Calm Calm - N/A   Clear
11:02 PM 1.4 °F -6.2 °F -2.2 °F 85% 30.14 in 10.0 mi SSW 3.5 mph - N/A   Clear
11:21 PM 1.4 °F - -2.2 °F 85% 30.14 in 10.0 mi Calm Calm - N/A   Clear
11:42 PM -0.4 °F - -4.0 °F 85% 30.14 in 10.0 mi Calm Calm - N/A   Clear